This is the latest recevied weather packets stored in our database for station/object KC3LDA. If no packets are shown the sender has not sent any weather packets the latest 1 day(s).
| Time | Temp. | Humidity | Pressure | Rain* | Wind** | Luminosity | Snow |
|---|---|---|---|---|---|---|---|
| 1778066094 | 13.33° C | 97% | 1007.5 hPa | 0 mm | - | 115 W/m² | - |
| 1778065185 | 12.78° C | 98% | 1007.9 hPa | 0 mm | - | 84 W/m² | - |
| 1778064882 | 12.78° C | 98% | 1007.7 hPa | 0 mm | - | 75 W/m² | - |
| 1778064579 | 12.78° C | 98% | 1007.7 hPa | 0 mm | - | 45 W/m² | - |
| 1778063672 | 12.78° C | 98% | 1007.6 hPa | 0 mm | - | 34 W/m² | - |
| 1778063369 | 12.78° C | 98% | 1007.4 hPa | 0 mm | - | 35 W/m² | - |
| 1778062764 | 12.78° C | 98% | 1007.3 hPa | 0 mm | - | 33 W/m² | - |
| 1778062460 | 12.78° C | 98% | 1007.2 hPa | 0 mm | - | 28 W/m² | - |
| 1778062158 | 12.78° C | 98% | 1007.5 hPa | 0 mm | - | 23 W/m² | - |
| 1778061856 | 12.78° C | 98% | 1007.2 hPa | 0 mm | - | 16 W/m² | - |
| 1778061252 | 12.78° C | 98% | 1007.1 hPa | 0 mm | - | 6 W/m² | - |
| 1778060948 | 12.78° C | 98% | 1007.3 hPa | 0 mm | - | 4 W/m² | - |
| 1778060344 | 12.78° C | 98% | 1007.4 hPa | 0 mm | - | 1 W/m² | - |
| 1778059739 | 12.78° C | 98% | 1007.4 hPa | 0 mm | - | 0 W/m² | - |
| 1778059437 | 12.78° C | 98% | 1007.5 hPa | 0 mm | - | 0 W/m² | - |
| 1778059133 | 12.78° C | 98% | 1007.4 hPa | 0 mm | - | 0 W/m² | - |
| 1778058831 | 12.78° C | 98% | 1007.4 hPa | 0 mm | - | 0 W/m² | - |
| 1778058528 | 12.78° C | 98% | 1007.6 hPa | 0 mm | - | 0 W/m² | - |
| 1778057315 | 12.78° C | 98% | 1007.6 hPa | 0 mm | - | 0 W/m² | - |
| 1778057012 | 12.78° C | 98% | 1007.6 hPa | 0 mm | - | 0 W/m² | - |
| 1778056406 | 12.78° C | 98% | 1007.8 hPa | 0 mm | - | 0 W/m² | - |
| 1778055800 | 12.78° C | 97% | 1007.6 hPa | 0 mm | - | 0 W/m² | - |
| 1778055496 | 12.78° C | 97% | 1007.8 hPa | 0 mm | - | 0 W/m² | - |
| 1778054892 | 12.78° C | 97% | 1007.8 hPa | 0 mm | - | 0 W/m² | - |
| 1778054286 | 12.78° C | 97% | 1007.9 hPa | 0 mm | - | 0 W/m² | - |
* Rain latest hour (hover to see other rain measurements)
** Current wind speed in m/s (hover to see current wind gust speed)